Asheville, NC

9:04 PM EST on December 06, 2019 (GMT -0500)
Asheville Regional

Weather History for KAVL - September, 2019

Change the Weather History Date:

Sunday, September 29, 2019

  Actual Average Record
Temperature  
Mean Temperature 77 °F 62 °F  
Max Temperature 90 °F 73 °F 90 °F (2019)
Min Temperature 63 °F 51 °F 35 °F (1967)
Degree Days  
Heating Degree Days 0 4  
Month to date heating degree days 2 48  
Since 1 July heating degree days 2 50  
Cooling Degree Days 12 1  
Month to date cooling degree days 223 94  
Year to date cooling degree days 1229 851  
Growing Degree Days 26 (Base 50)    
Moisture  
Dew Point 64 °F    
Average Humidity 71    
Maximum Humidity 97    
Minimum Humidity 44    
Precipitation  
Precipitation 0.00 in 0.12 in 4.40 in (1964)
Month to date precipitation 0.40 3.69  
Year to date precipitation 42.11 35.30  
Sea Level Pressure  
Sea Level Pressure 30.25 in    
Wind  
Wind Speed 2 mph (NNW)    
Max Wind Speed 8 mph    
Max Gust Speed 13 mph    
Visibility 4 miles    
Events Fog    
T = Trace of Precipitation, MM = Missing Value Source: NWS Daily Summary

Daily Weather History Graph

Daily Weather History Graph

Search for Another Location

Airport or City:

Astronomy

Sep. 29, 2019 Rise Set
Actual Time 7:23 AM EDT 7:17 PM EDT
Civil Twilight 6:57 AM EDT 7:42 PM EDT
Nautical Twilight 6:28 AM EDT 8:11 PM EDT
Astronomical Twilight 5:58 AM EDT 8:41 PM EDT
Moon 8:12 AM EDT (9/29) 8:18 PM EDT (9/29)
Length of Visible Light 12h 44m
Length of Day
11h 53m
New Moon, 1% of the Moon is Illuminated
Sep 29
New Moon
Oct 5
First Quarter
Oct 13
Full
Oct 21
Last Quarter
Oct 27
New

Hourly Weather History & Observations

Time (EDT) Temp. Heat Index Dew Point Humidity Pressure Visibility Wind Dir Wind Speed Gust Speed Precip Events Conditions
12:13 AM 66.9 °F - 64.0 °F 90% 30.27 in 10.0 mi North 3.5 mph - N/A   Mostly Cloudy
12:31 AM 66.9 °F - 64.0 °F 90% 30.27 in 1.8 mi North 3.5 mph - N/A   Scattered Clouds
12:40 AM 66.9 °F - 64.9 °F 93% 30.27 in 2.0 mi Calm Calm - N/A   Mostly Cloudy
12:52 AM 66.2 °F - 64.4 °F 94% 30.27 in 6.0 mi Calm Calm - N/A   Mostly Cloudy
12:54 AM 66.9 °F - 64.9 °F 93% 30.19 in 6.0 mi Calm Calm - N/A   Mostly Cloudy
1:09 AM 66.9 °F - 64.0 °F 90% 30.27 in 1.8 mi NNW 4.6 mph - N/A   Overcast
1:20 AM 66.9 °F - 64.9 °F 93% 30.27 in 3.0 mi NNW 3.5 mph - N/A   Overcast
1:24 AM 66.0 °F - 64.0 °F 93% 30.27 in 1.8 mi NW 3.5 mph - N/A   Overcast
1:27 AM 66.0 °F - 64.0 °F 93% 30.27 in 0.8 mi NW 3.5 mph - N/A   Overcast
1:38 AM 66.0 °F - 64.0 °F 93% 30.28 in 0.2 mi Calm Calm - N/A Fog Fog
1:54 AM 66.0 °F - 64.0 °F 93% 30.21 in 0.2 mi Calm Calm - N/A Fog Fog
2:30 AM 66.0 °F - 64.0 °F 93% 30.28 in 0.5 mi Calm Calm - N/A Fog Fog
2:37 AM 66.0 °F - 64.0 °F 93% 30.28 in 1.5 mi Calm Calm - N/A   Overcast
2:41 AM 66.0 °F - 64.0 °F 93% 30.28 in 3.0 mi Calm Calm - N/A   Overcast
2:52 AM 66.2 °F - 64.4 °F 94% 30.28 in 1.8 mi Calm Calm - N/A   Overcast
2:54 AM 66.0 °F - 64.0 °F 93% 30.21 in 1.2 mi Calm Calm - N/A   Overcast
3:10 AM 66.0 °F - 64.0 °F 93% 30.28 in 2.0 mi Calm Calm - N/A   Overcast
3:13 AM 66.0 °F - 64.0 °F 93% 30.28 in 2.5 mi Calm Calm - N/A   Overcast
3:18 AM 66.0 °F - 64.0 °F 93% 30.28 in 1.5 mi Calm Calm - N/A   Overcast
3:24 AM 66.0 °F - 64.0 °F 93% 30.28 in 0.8 mi Calm Calm - N/A   Overcast
3:34 AM 64.9 °F - 64.0 °F 97% 30.28 in 0.2 mi Calm Calm - N/A Fog Fog
3:54 AM 64.9 °F - 64.0 °F 97% 30.22 in 0.2 mi Calm Calm - N/A Fog Fog
4:18 AM 64.9 °F - 64.0 °F 97% 30.28 in 0.2 mi Calm Calm - N/A Fog Fog
4:30 AM 64.9 °F - 63.0 °F 93% 30.28 in 0.2 mi Calm Calm - N/A Fog Fog
4:41 AM 64.9 °F - 63.0 °F 93% 30.28 in 0.2 mi Calm Calm - N/A Fog Fog
4:50 AM 64.4 °F - 64.4 °F 100% 30.28 in 0.5 mi Calm Calm - N/A Fog Fog
4:54 AM 64.9 °F - 64.0 °F 97% 30.22 in 0.5 mi Calm Calm - N/A Fog Fog
5:46 AM 64.9 °F - 63.0 °F 93% 30.29 in 1.2 mi Calm Calm - N/A   Overcast
5:52 AM 64.4 °F - 64.4 °F 100% 30.29 in 1.5 mi Calm Calm - N/A   Overcast
5:54 AM 64.9 °F - 64.0 °F 97% 30.23 in 1.5 mi Calm Calm - N/A   Overcast
6:02 AM 64.9 °F - 63.0 °F 93% 30.29 in 0.8 mi Calm Calm - N/A   Overcast
6:13 AM 64.9 °F - 63.0 °F 93% 30.30 in 1.0 mi Calm Calm - N/A   Overcast
6:21 AM 64.0 °F - 62.1 °F 93% 30.30 in 2.0 mi Calm Calm - N/A   Overcast
6:29 AM 64.0 °F - 62.1 °F 93% 30.30 in 9.0 mi Calm Calm - N/A   Overcast
6:50 AM 64.4 °F - 62.6 °F 94% 30.30 in 1.0 mi Calm Calm - N/A   Overcast
6:54 AM 64.0 °F - 63.0 °F 96% 30.24 in 1.0 mi Calm Calm - N/A   Overcast
7:01 AM 64.9 °F - 63.0 °F 93% 30.30 in 0.5 mi NNW 4.6 mph - N/A Fog Fog
7:54 AM 64.0 °F - 62.1 °F 93% 30.25 in 0.5 mi NNW 4.6 mph - N/A Fog Fog
8:19 AM 63.0 °F - 62.1 °F 97% 30.32 in 1.0 mi North 3.5 mph - N/A   Mist
8:35 AM 64.0 °F - 62.1 °F 93% 30.32 in 6.0 mi NNW 5.8 mph - N/A   Scattered Clouds
8:54 AM 66.0 °F - 63.0 °F 90% 30.26 in 6.0 mi NNW 3.5 mph - N/A   Scattered Clouds
9:54 AM 71.1 °F - 64.9 °F 81% 30.27 in 10.0 mi NW 3.5 mph - N/A   Clear
11:54 AM 82.0 °F 83.8 °F 64.9 °F 56% 30.24 in 10.0 mi North 5.8 mph - N/A   Unknown
12:54 PM 84.9 °F 87.1 °F 66.0 °F 53% 30.22 in 10.0 mi Variable 3.5 mph - N/A   Clear
1:54 PM 86.0 °F 88.2 °F 66.0 °F 51% 30.19 in 10.0 mi Calm Calm - N/A   Partly Cloudy
2:54 PM 89.1 °F 90.3 °F 64.0 °F 43% 30.17 in 10.0 mi South 6.9 mph - N/A   Mostly Cloudy
3:54 PM 89.1 °F 90.3 °F 64.0 °F 43% 30.15 in 10.0 mi South 6.9 mph - N/A   Scattered Clouds
4:54 PM 86.0 °F 86.8 °F 63.0 °F 46% 30.15 in 10.0 mi SSE 3.5 mph - N/A   Clear
5:54 PM 84.9 °F 86.6 °F 64.9 °F 51% 30.16 in 10.0 mi SSE 3.5 mph - N/A   Clear
6:54 PM 82.0 °F 84.1 °F 66.0 °F 58% 30.17 in 10.0 mi South 3.5 mph - N/A   Partly Cloudy
7:54 PM 78.1 °F - 69.1 °F 74% 30.19 in 10.0 mi Calm Calm - N/A   Clear
8:54 PM 75.9 °F - 69.1 °F 79% 30.20 in 10.0 mi Calm Calm - N/A   Clear
9:54 PM 73.0 °F - 69.1 °F 87% 30.21 in 10.0 mi Calm Calm - N/A   Clear
10:54 PM 73.0 °F - 66.9 °F 81% 30.21 in 10.0 mi North 3.5 mph - N/A   Clear
11:54 PM 70.0 °F - 66.9 °F 90% 30.21 in 7.0 mi Calm Calm - N/A   Clear